Location: Area 52 Observatory
(34.2620°N, 119.2590°W)
Time: 11:32:39
(UTC-07:00)

Hubble Space Telescope - Pass Details

Date: 27 March 2019
Orbit: 536 x 540 km, 28.5° (Epoch: 21 October)

Event Time Altitude Azimuth Distance (km) Brightness Sun altitude
Rises 20:37:14 0° 253° (WSW) 2,674 5.3 -17.7°
Reaches altitude 10° 20:39:36 10° 244° (WSW) 1,784 4.1 -18.2°
Maximum altitude 20:43:24 36° 177° (S) 856 1.6 -18.9°
Enters shadow 20:43:55 35° 160° (SSE) 881 1.5 -19.0°
